Skip Page Navigation
NASA JPL Caltech
NASA Logo - Jet Propulsion Laboratory + View the NASA Portal
+ Center for Near-Earth Object Studies
JPL Home Earth Solar System Stars & Galaxies Technology
JPL Solar System Dynamics
BODIES ORBITS EPHEMERIDES TOOLS PHYSICAL DATA DISCOVERY FAQ SITE MAP
IMPORTANT: The SSD Announcement email list is now available. Major changes are coming in the near future, including possible hostname and/or URL changes. To be notified of such changes, subscribe to this email list.

Please visit this page for more details.


JPL Small-Body Database Browser
Search: [ help ]  
13296 (1998 RV)
Classification: Main-belt Asteroid          SPK-ID: 2013296
Ephemeris | Orbit Diagram | Orbital Elements | Mission Design | Physical Parameters | Discovery Circumstances | Close-Approach Data ]

[ show orbit diagram ]
Orbital Elements at Epoch 2459000.5 (2020-May-31.0) TDB
Reference: JPL 26 (heliocentric ecliptic J2000)
 Element Value Uncertainty (1-sigma)   Units 
e .08952535751761051 5.8577e-08  
a 2.988483868691512 1.8631e-08 au
q 2.720938781911293 1.7804e-07 au
i 9.81383336398167 6.2627e-06 deg
node 4.577509451745718 1.985e-05 deg
peri 6.016250906992155 2.9655e-05 deg
M 38.18397603416125 1.9891e-05 deg
tp 2458800.350988853790
(2019-Nov-12.85098885)
0.00010462 TDB
period 1887.012603092272
5.17
1.7646e-05
4.831e-08
d
yr
n .1907777401221716 1.784e-09 deg/d
Q 3.256028955471731 2.0298e-08 au
  Orbit Determination Parameters
   # obs. used (total)      1747  
   data-arc span      10529 days (28.83 yr)  
   first obs. used      1991-03-11  
   last obs. used      2020-01-07  
   planetary ephem.      DE431  
   SB-pert. ephem.      SB431-N16  
   condition code      0  
   norm. resid. RMS      .51089  
   source      ORB  
   producer      Otto Matic  
   solution date      2020-Jan-28 23:05:09  

Additional Information
 Earth MOID = 1.72048 au 
 Jupiter MOID = 2.20517 au 
 T_jup = 3.229 
[ hide covariance matrix ]
Orbital Elements at Epoch 2456908.5 (2014-Sep-08.0) TDB
Reference: JPL 26 (heliocentric ecliptic J2000)
 Element Value Uncertainty (1-sigma)   Units 
e .09080095561262835 5.9294e-08  
q 2.716441794983501 1.8044e-07 au
tp 2456897.859998014110
(2014-Aug-28.35999801)
0.00010606 TDB
node 4.684430418566356 1.978e-05 deg
peri 3.228055457442255 2.9196e-05 deg
i 9.836649472501895 6.2706e-06 deg
  Orbit Determination Parameters
   # obs. used (total)      1747  
   data-arc span      10529 days (28.83 yr)  
   first obs. used      1991-03-11  
   last obs. used      2020-01-07  
   planetary ephem.      DE431  
   SB-pert. ephem.      SB431-N16  
   condition code      0  
   norm. resid. RMS      .51089  
   source      ORB  
   producer      Otto Matic  
   solution date      2020-Jan-28 23:05:09  

Additional Information
 Jupiter MOID = 2.20517 au 
 T_jup = 3.229 
Orbit Covariance (6×6)
  e q tp node peri i
e 3.515724987861684E-15 -1.06535606422522E-14 -3.516036948695319E-13 1.776674474210838E-15 -1.267128217431114E-13 -1.198890415674605E-15
q -1.06535606422522E-14 3.255887478271728E-14 4.748927675992577E-13 -5.969329302279376E-15 2.677731827624335E-13 4.757022214431437E-15
tp -3.516036948695319E-13 4.748927675992577E-13 1.124908243537654E-8 -5.54525375845957E-12 2.283489484475962E-9 -4.728900784201286E-12
node 1.776674474210838E-15 -5.969329302279376E-15 -5.54525375845957E-12 3.91264219869485E-10 -3.861075276687785E-10 8.09414427950439E-12
peri -1.267128217431114E-13 2.677731827624335E-13 2.283489484475962E-9 -3.861075276687785E-10 8.5239149186598E-10 -8.924599685042335E-12
i -1.198890415674605E-15 4.757022214431437E-15 -4.728900784201286E-12 8.09414427950439E-12 -8.924599685042335E-12 3.932082299202894E-11

Ephemeris | Orbit Diagram | Orbital Elements | Mission Design | Physical Parameters | Discovery Circumstances | Close-Approach Data ]

Physical Parameter Table
Parameter Symbol Value Units Sigma Reference Notes
absolute magnitude H 13.1   n/a MPO412279  
diameter diameter 12.746 km 0.125 urn:nasa:pds:neowise_diameters_albedos::2.0[mainbelt] (http://adsabs.harvard.edu/abs/2011ApJ...741...68M)  
geometric albedo albedo 0.056   0.013 urn:nasa:pds:neowise_diameters_albedos::2.0[mainbelt] (http://adsabs.harvard.edu/abs/2011ApJ...741...68M)  

13296 (1998 RV)          Discovered 1998-Sep-11 by Zoltowski, F. B. at Woomera
Reference: 20000124/Numbers.arcLast Updated: 2004-04-19

[ show close-approach data ]
Alternate Designations
 1998 RV = 1991 EG3 
Ephemeris | Orbit Diagram | Orbital Elements | Mission Design | Physical Parameters | Discovery Circumstances | Close-Approach Data ]
ABOUT SSD CREDITS/AWARDS PRIVACY/COPYRIGHT GLOSSARY LINKS
FirstGov 2020-Feb-20 08:40 UT
(server date/time)  
NASA Home Page
Site Manager:   Ryan S. Park
Webmaster  Alan B. Chamberlin